Indian Springs, NV

7:09 PM PDT on June 25, 2017 (GMT -0700)
Indian Springs Air Force Auxiliary

Weather History for KINS - October, 2012

Change the Weather History Date:

Saturday, October 13, 2012

  Actual Average (KDRA) Record (KDRA)
Temperature  
Mean Temperature 60 °F -  
Max Temperature 73 °F 78 °F 92 °F (1991)
Min Temperature 49 °F 48 °F 38 °F (1981)
Degree Days  
Heating Degree Days 4    
Growing Degree Days 10 (Base 50)    
Moisture  
Dew Point 47 °F    
Average Humidity 65    
Maximum Humidity 84    
Minimum Humidity 36    
Precipitation  
Precipitation 0.00 in - - ()
Sea Level Pressure  
Sea Level Pressure 30.12 in    
Wind  
Wind Speed 4 mph (West)    
Max Wind Speed 10 mph    
Max Gust Speed -    
Visibility 10 miles    
Events      
Averages and records for this station are not official NWS values.
T = Trace of Precipitation, MM = Missing Value Source: NWS Daily Summary

Daily Weather History Graph

Daily Weather History Graph

Search for Another Location

Airport or City:

Trip Planner

Search our weather history database for the weather conditions in past years. The results will help you decide how hot, cold, wet, or windy it might be!

Date:

Astronomy

Oct. 13, 2012 Rise Set
Actual Time 6:48 AM PDT 6:08 PM PDT
Civil Twilight 6:22 AM PDT 6:34 PM PDT
Nautical Twilight 5:52 AM PDT 7:04 PM PDT
Astronomical Twilight 5:22 AM PDT 7:33 PM PDT
Moon 4:45 AM PDT (10/13) 4:53 PM PDT (10/13)
Length of Visible Light 12h 11m
Length of Day
11h 19m
Waning Crescent, 4% of the Moon is Illuminated
Oct 13
Waning Crescent
Oct 15
New
Oct 21
First Quarter
Oct 29
Full
Nov 6
Last Quarter

Hourly Weather History & Observations

Time (PDT) Temp. Dew Point Humidity Pressure Visibility Wind Dir Wind Speed Gust Speed Precip Events Conditions
12:55 AM 50.2 °F 44.6 °F 81% 30.07 in 10.0 mi WSW 4.6 mph - N/A   Clear
1:55 AM 50.2 °F 43.9 °F 79% 30.08 in 10.0 mi Calm Calm - N/A   Clear
2:55 AM 51.8 °F 43.5 °F 73% 30.07 in 10.0 mi WSW 6.9 mph - N/A   Clear
3:55 AM 50.9 °F 43.5 °F 76% 30.08 in 10.0 mi West 10.4 mph - N/A   Clear
4:55 AM 50.0 °F 43.5 °F 78% 30.10 in 10.0 mi WSW 6.9 mph - N/A   Clear
5:55 AM 49.3 °F 42.4 °F 77% 30.13 in 10.0 mi West 4.6 mph - N/A   Clear
6:55 AM 49.3 °F 42.8 °F 78% 30.14 in 10.0 mi Calm Calm - N/A   Clear
7:55 AM 50.2 °F 44.8 °F 82% 30.17 in 10.0 mi West 4.6 mph - N/A   Clear
8:55 AM 57.9 °F 45.3 °F 63% 30.17 in 10.0 mi NW 3.5 mph - N/A   Clear
9:55 AM 59.4 °F 44.4 °F 58% 30.18 in 10.0 mi West 3.5 mph - N/A   Clear
10:55 AM 62.1 °F 45.3 °F 54% 30.17 in 10.0 mi NNW 4.6 mph - N/A   Clear
11:55 AM 65.1 °F 46.8 °F 51% 30.16 in 10.0 mi NNW 4.6 mph - N/A   Clear
12:55 PM 66.9 °F 48.9 °F 52% 30.14 in 10.0 mi North 5.8 mph - N/A   Clear
1:55 PM 68.4 °F 48.4 °F 49% 30.12 in 10.0 mi Calm Calm - N/A   Partly Cloudy
2:55 PM 70.7 °F 46.8 °F 42% 30.09 in 10.0 mi Calm Calm - N/A   Clear
4:55 PM 72.5 °F 44.2 °F 36% 30.08 in 10.0 mi Calm Calm - N/A   Clear
5:55 PM 71.6 °F 45.0 °F 38% 30.08 in 10.0 mi Calm Calm - N/A   Clear
6:55 PM 68.0 °F 51.1 °F 55% 30.10 in 10.0 mi ESE 4.6 mph - N/A   Clear
7:55 PM 64.0 °F 51.6 °F 64% 30.12 in 10.0 mi East 9.2 mph - N/A   Clear
8:55 PM 62.4 °F 52.9 °F 71% 30.12 in 10.0 mi SSW 3.5 mph - N/A   Clear
9:55 PM 60.1 °F 50.9 °F 72% 30.12 in 10.0 mi West 3.5 mph - N/A   Clear
10:55 PM 58.5 °F 52.7 °F 81% 30.13 in 10.0 mi Calm Calm - N/A   Clear
11:55 PM 55.9 °F 51.1 °F 84% 30.13 in 10.0 mi Calm Calm - N/A   Clear